Back to catalog

STARLINK-5453

AliveCommunicationsVLEO
NORAD 54773·PAYLOAD·🇺🇸 United States

Launched Dec 17, 2022 from Cape Canaveral Space Force Station

Loading…

Next Passes (next 24 hours)

TLE

FreshSource: CelesTrak SupGP

Epoch: Sep 14, 2026, 13:34 UTC

1 54773C 22175R   26257.56576389 -.00005880  00000+0 -17375-3 0  2579
2 54773  53.1578 265.5283 0001295  70.6132  30.8154 15.34388320    13

Track STARLINK-5453 in real time with AllMySat

Download on the App Store